[[{"header":{"parameterUnit":"m.s-1","parameterCategory":1,"la1":30.2991,"la2":30.254,"lo1":-89.0895,"lo2":-89.0444,"dy":0.0017,"dx":0.0017,"nx":28,"ny":28,"refTime":"2024-03-23T21:00:00:Z","depth":0,"parameterNumber":2,"parameterNumberName":"U-component_of_WINDS"},"data":[0,0,0,0,0,0,0,0,0,0,0,0,0,0,0,0,0,0,0,0,0,0,0,0,0,0,0,0,0,0,0,0,0,0,0,0,0,0,0,0,0,0,0,0,0,0,0,0,0,0,0,0,0,0,0,0,0,0,-5.2781,-5.2782,0,-5.2854,-5.2855,-5.2856,-5.281,-5.2808,-5.2806,-5.2804,-5.2877,-5.2881,-5.2885,0,0,0,0,0,0,0,0,0,0,0,0,0,-5.2605,-5.2608,-5.2781,-5.2782,-5.2783,-5.2854,-5.2855,-5.2856,-5.2811,-5.2808,-5.2806,-5.2803,-5.2876,-5.2881,-5.2885,0,0,0,0,0,0,0,0,0,0,0,0,0,-5.268,-5.2609,-5.2781,-5.2769,-5.2769,-5.2854,-5.2855,-5.2856,-5.2811,-5.2808,-5.2805,-5.2802,-5.2875,-5.288,-5.2886,-5.2986,0,0,-5.2904,-5.2907,0,0,0,0,0,0,0,0,-5.2676,-5.2686,-5.277,-5.277,-5.277,-5.282,-5.2819,-5.29,-5.2812,-5.2795,-5.2804,-5.28,-5.2861,-5.2868,-5.2888,-5.299,-5.2993,-5.2905,-5.2908,-5.2911,-5.2912,0,0,0,0,0,0,0,-5.2671,-5.2683,-5.281,-5.2771,-5.2771,-5.2761,-5.2768,-5.2834,-5.2845,-5.2796,-5.2793,-5.2803,-5.286,-5.2883,-5.289,-5.2994,-5.2905,-5.291,-5.2913,-5.2916,-5.3183,-5.3187,0,0,0,0,0,0,-5.2666,-5.2679,-5.2808,-5.2812,-5.2714,-5.2766,-5.2774,-5.2807,-5.2844,-5.2847,-5.2805,-5.28,-5.2874,-5.2883,-5.2892,-5.3011,-5.2911,-5.2916,-5.292,-5.318,-5.3184,-5.3188,0,0,0,0,0,0,-5.2663,-5.2678,-5.2805,-5.2745,-5.276,-5.2773,-5.281,-5.281,-5.2832,-5.2851,-5.2852,-5.2826,-5.2872,-5.2884,-5.2964,-5.3013,-5.2919,-5.2924,-5.3175,-5.3181,-5.3186,-5.3251,0,0,0,0,0,0,-5.2658,-5.2677,-5.2715,-5.2746,-5.2764,-5.2875,-5.2813,-5.2814,-5.2843,-5.2837,-5.2871,-5.2873,-5.287,-5.2955,-5.2969,-5.302,-5.2929,-5.3171,-5.3178,-5.3184,-5.3244,-5.3258,-5.327,0,0,0,0,0,-5.2652,-5.273,-5.2717,-5.2733,-5.2811,-5.2878,-5.2888,-5.2883,-5.2847,-5.2885,-5.2898,-5.2872,-5.3007,-5.2964,-5.2979,-5.3032,-5.3168,-5.3176,-5.3184,-5.3239,-5.3255,-5.3269,0,0,0,0,0,0,-5.2702,-5.2733,-5.2719,-5.281,-5.2842,-5.287,-5.2917,-5.29,-5.2942,-5.2935,-5.2928,-5.2936,-5.3019,-5.3034,-5.2986,-5.3132,-5.3081,-5.3093,-5.3118,-5.3134,-5.3146,-5.3139,-5.2934,0,0,0,0,0,-5.2725,-5.2776,-5.2801,-5.2878,-5.2895,-5.2904,-5.2933,-5.2927,-5.2959,-5.2972,-5.299,-5.3023,-5.3072,-5.3104,-5.3151,-5.3248,-5.3255,-5.3293,-5.3305,-5.3316,-5.3324,-5.3377,-5.3394,-5.3214,-5.3214,-5.3214,0,0,-5.277,-5.2793,-5.2826,-5.2889,-5.2913,-5.2967,-5.2915,-5.2974,-5.3014,-5.2981,-5.3057,-5.3072,-5.3108,-5.3197,-5.3237,-5.3212,-5.3377,-5.3326,-5.3334,-5.3337,-5.3387,-5.3404,-5.3419,-5.322,-5.3219,-5.3218,0,0,-5.2879,-5.2903,-5.297,-5.2996,-5.3033,-5.3039,-5.3056,-5.3088,-5.3096,-5.3173,-5.315,-5.3198,-5.3284,-5.331,-5.3335,-5.346,-5.3437,-5.3475,-5.3539,-5.3591,-5.3605,-5.3617,-5.366,-5.3676,-5.3485,-5.3485,-5.3485,0,-5.293,-5.301,-5.3006,-5.3068,-5.3096,-5.3071,-5.3139,-5.3165,-5.3216,-5.3236,-5.3208,-5.3316,-5.3339,-5.3433,-5.3464,-5.3486,-5.3504,-5.3469,-5.3603,-5.3616,-5.3627,-5.3668,-5.3684,-5.3489,-5.3489,-5.3488,-5.3488,0,-5.307,-5.3127,-5.3177,-5.3227,-5.3262,-5.3326,-5.3333,-5.3369,-5.3362,-5.3372,-5.3451,-5.3478,-5.353,-5.3553,-5.3546,-5.3648,-5.3631,-5.3604,-5.3552,-5.3649,-5.3687,-5.3702,-5.3495,-5.3494,-5.3493,-5.3492,0,0,-5.3208,-5.3259,-5.3277,-5.33,-5.3342,-5.3385,-5.345,-5.3502,-5.3532,-5.357,-5.3623,-5.3698,-5.3674,-5.3702,-5.3699,-5.3745,-5.3841,-5.3712,-5.3713,-5.3733,-5.3954,-5.3971,-5.399,-5.3829,-5.3832,-5.3834,-5.395,0,-5.3318,-5.343,-5.3431,-5.3534,-5.3586,-5.3565,-5.3622,-5.3654,-5.3666,-5.3712,-5.3725,-5.3778,-5.3743,-5.376,-5.3805,-5.3819,-5.3884,-5.3812,-5.3877,-5.3879,-5.3864,-5.401,-5.4028,-5.4136,-5.3965,-5.3968,-5.397,0,-5.346,-5.3503,-5.3611,-5.3647,-5.3669,-5.3719,-5.3767,-5.3813,-5.3849,-5.3855,-5.3889,-5.3879,-5.3946,-5.3896,-5.3988,-5.3938,-5.3966,-5.3978,-5.3982,-5.3984,-5.3927,-5.4014,-5.417,-5.4185,-5.3993,-5.3991,-5.399,0,-5.3547,-5.3632,-5.3708,-5.3729,-5.3773,-5.3809,-5.3829,-5.3863,-5.3895,-5.3938,-5.3959,-5.401,-5.4036,-5.4076,-5.4081,-5.4045,-5.4173,-5.4124,-5.4179,-5.4178,-5.4202,-5.42,-5.4363,-5.4227,-5.4226,-5.4226,-5.4226,0,-5.3667,-5.3733,-5.3748,-5.3794,-5.3869,-5.3871,-5.3945,-5.3962,-5.3993,-5.4043,-5.403,-5.4077,-5.4083,-5.4132,-5.4137,-5.4211,-5.4224,-5.423,-5.423,-5.4229,-5.4228,-5.4244,-5.4235,-5.423,-5.4229,-5.4229,-5.4228,0,-5.3774,-5.3787,-5.3868,-5.3905,-5.3916,-5.3969,-5.4,-5.4045,-5.4058,-5.4121,-5.4136,-5.4156,-5.4213,-5.4223,-5.4291,-5.4294,-5.4383,-5.4376,-5.437,-5.4368,-5.4421,-5.4415,-5.4597,-5.462,-5.4472,-5.4473,-5.4474,0,-5.3848,-5.3899,-5.3942,-5.3975,-5.3997,-5.405,-5.4083,-5.4089,-5.4123,-5.4172,-5.4211,-5.4267,-5.4312,-5.4405,-5.4425,-5.4477,-5.447,-5.4531,-5.4477,-5.4475,-5.4468,-5.4463,-5.4468,-5.4539,-5.4541,-5.4542,-5.4543,0,-5.3977,-5.3982,-5.403,-5.4081,-5.4121,-5.4162,-5.42,-5.4228,-5.4239,-5.4279,-5.4338,-5.4373,-5.4443,-5.4499,-5.4552,-5.4573,-5.456,-5.4561,-5.4575,-5.4573,-5.4566,-5.4568,-5.4394,-5.4555,-5.4554,-5.4553,-5.4552,-5.4552,-5.4068,-5.4113,-5.4151,-5.4205,-5.4235,-5.4272,-5.4316,-5.4336,-5.4385,-5.4442,-5.4444,-5.4508,-5.4546,-5.4616,-5.4641,-5.4692,-5.4673,-5.4695,-5.47,-5.4704,-5.4708,-5.4562,-5.4702,-5.4702,-5.4701,-5.4701,-5.4701,0,-5.4195,-5.4219,-5.427,-5.4324,-5.4368,-5.4355,-5.4397,-5.4434,-5.4491,-5.4528,-5.4574,-5.4642,-5.4698,-5.4724,-5.4779,-5.4814,-5.481,-5.4828,-5.4824,-5.4829,-5.4723,-5.4704,-5.4831,-5.4831,-5.4831,-5.4831,-5.4831,-5.4831,-5.4265,-5.4339,-5.4349,-5.444,-5.4464,-5.4527,-5.4552,-5.4587,-5.4617,-5.4694,-5.474,-5.4758,-5.4791,-5.4849,-5.4899,-5.4906,-5.4925,-5.4946,-5.495,-5.485,-5.4836,-5.4823,-5.4805,-5.4951,-5.4951,-5.505,-5.5051,-5.5052]},{"header":{"parameterUnit":"m.s-1","parameterCategory":1,"la1":30.2991,"la2":30.254,"lo1":-89.0895,"lo2":-89.0444,"dy":0.0017,"dx":0.0017,"nx":28,"ny":28,"refTime":"2024-03-23T21:00:00:Z","depth":0,"parameterNumber":3,"parameterNumberName":"V-component_of_WINDS"},"data":[0,0,0,0,0,0,0,0,0,0,0,0,0,0,0,0,0,0,0,0,0,0,0,0,0,0,0,0,0,0,0,0,0,0,0,0,0,0,0,0,0,0,0,0,0,0,0,0,0,0,0,0,0,0,0,0,0,0,3.1842,3.1842,0,3.1854,3.1854,3.1854,3.1897,3.1898,3.1899,3.19,3.1907,3.1906,3.1905,0,0,0,0,0,0,0,0,0,0,0,0,0,3.1852,3.1851,3.1842,3.1842,3.1842,3.1854,3.1854,3.1854,3.1897,3.1898,3.1899,3.19,3.1907,3.1906,3.1905,0,0,0,0,0,0,0,0,0,0,0,0,0,3.1854,3.1851,3.1842,3.1865,3.1867,3.1854,3.1854,3.1854,3.1896,3.1898,3.1899,3.1901,3.1907,3.1906,3.1905,3.1869,0,0,3.1902,3.1901,0,0,0,0,0,0,0,0,3.1854,3.1853,3.1861,3.1863,3.1866,3.1876,3.186,3.1859,3.1896,3.1885,3.19,3.1902,3.1895,3.1895,3.1894,3.1869,3.1869,3.1902,3.1901,3.1901,3.19,0,0,0,0,0,0,0,3.1854,3.1853,3.1846,3.1861,3.1864,3.1873,3.1875,3.186,3.1881,3.1886,3.1889,3.189,3.1896,3.1895,3.1894,3.1869,3.1902,3.1901,3.19,3.19,3.1817,3.1816,0,0,0,0,0,0,3.1851,3.1853,3.1846,3.1847,3.1863,3.1872,3.1874,3.1871,3.1882,3.1885,3.1889,3.1892,3.1896,3.1895,3.1894,3.1854,3.1901,3.1899,3.1899,3.1819,3.1817,3.1815,0,0,0,0,0,0,3.1851,3.185,3.1845,3.1851,3.1851,3.187,3.1866,3.187,3.1869,3.1884,3.1888,3.1884,3.1897,3.1896,3.1876,3.1855,3.1899,3.1898,3.1821,3.1818,3.1816,3.1771,0,0,0,0,0,0,3.1851,3.1849,3.1836,3.185,3.185,3.1827,3.1865,3.1869,3.1867,3.1872,3.188,3.1883,3.1898,3.1877,3.1875,3.1854,3.1897,3.1823,3.182,3.1817,3.1775,3.1768,3.1762,0,0,0,0,0,3.1851,3.1822,3.1836,3.1834,3.1835,3.1826,3.1826,3.1846,3.1865,3.1852,3.1862,3.1882,3.1858,3.1875,3.1872,3.1851,3.1824,3.1821,3.1817,3.1778,3.1769,3.1762,0,0,0,0,0,0,3.1803,3.1824,3.1839,3.1814,3.1818,3.1833,3.1817,3.1836,3.1833,3.1837,3.186,3.1861,3.1838,3.1842,3.1861,3.1817,3.1844,3.184,3.1815,3.1807,3.1801,3.18,3.1896,0,0,0,0,0,3.1789,3.1782,3.18,3.1776,3.1777,3.1797,3.1793,3.1809,3.1813,3.1815,3.1823,3.1825,3.1819,3.1813,3.1807,3.1776,3.1779,3.176,3.1754,3.1748,3.1744,3.1729,3.1722,3.1804,3.1804,3.1804,0,0,3.1761,3.1772,3.1765,3.1766,3.1771,3.1762,3.1798,3.1786,3.1779,3.1812,3.1794,3.1801,3.1805,3.1779,3.1768,3.1782,3.1722,3.1744,3.174,3.1738,3.1725,3.1717,3.171,3.1802,3.1802,3.1803,0,0,3.1705,3.1712,3.1694,3.1699,3.1707,3.172,3.1716,3.1729,3.1735,3.1718,3.1743,3.1735,3.1722,3.1724,3.1724,3.1671,3.169,3.1669,3.1635,3.162,3.1613,3.1608,3.1589,3.1583,3.1665,3.1665,3.1665,0,3.1668,3.1657,3.1681,3.1669,3.1669,3.1701,3.1682,3.1685,3.169,3.1689,3.1705,3.1691,3.1696,3.1672,3.166,3.1658,3.1653,3.1667,3.1613,3.1607,3.1602,3.1585,3.1578,3.1662,3.1662,3.1663,3.1663,0,3.1612,3.1603,3.1587,3.1594,3.1592,3.1576,3.1597,3.1592,3.1608,3.162,3.1602,3.161,3.1607,3.1603,3.1617,3.1581,3.159,3.1609,3.1636,3.1591,3.1576,3.1569,3.1658,3.1659,3.166,3.1661,0,0,3.1524,3.1546,3.154,3.1544,3.1556,3.155,3.1536,3.1535,3.1531,3.1533,3.1522,3.1511,3.153,3.1529,3.1545,3.1531,3.1491,3.1552,3.1553,3.1541,3.1453,3.1438,3.143,3.1504,3.1502,3.1501,3.1452,0,3.1471,3.145,3.1472,3.1446,3.1439,3.147,3.1458,3.1464,3.1475,3.1469,3.1481,3.1474,3.1498,3.1498,3.1487,3.1498,3.1473,3.1502,3.1492,3.1492,3.149,3.1422,3.1406,3.136,3.1446,3.1445,3.1445,0,3.1406,3.1409,3.1382,3.1398,3.1396,3.1385,3.1387,3.1382,3.1389,3.1398,3.1399,3.1418,3.1405,3.1433,3.1415,3.1434,3.1431,3.1436,3.1435,3.1435,3.1465,3.142,3.1345,3.1338,3.1435,3.1436,3.1437,0,3.1346,3.1342,3.1327,3.1329,3.1347,3.1339,3.1345,3.1355,3.1353,3.1355,3.1354,3.1353,3.1352,3.1351,3.137,3.1388,3.1349,3.1378,3.1356,3.1355,3.1345,3.1346,3.127,3.1344,3.1344,3.1344,3.1344,0,3.1285,3.1267,3.13,3.129,3.1272,3.1298,3.1278,3.1288,3.1296,3.1289,3.1315,3.1307,3.1332,3.1326,3.1341,3.1324,3.1323,3.133,3.1334,3.1327,3.1326,3.1325,3.1329,3.1342,3.1343,3.1343,3.1343,0,3.1213,3.1235,3.122,3.1239,3.1244,3.1229,3.1245,3.1237,3.125,3.124,3.1239,3.126,3.1255,3.1274,3.1271,3.1281,3.1256,3.1265,3.1254,3.1257,3.1234,3.1236,3.1154,3.1145,3.1225,3.1224,3.1223,0,3.1173,3.1161,3.118,3.1178,3.1184,3.1179,3.1179,3.1204,3.1202,3.1211,3.1202,3.1199,3.1199,3.1189,3.1203,3.1201,3.1211,3.1182,3.121,3.1205,3.1211,3.1211,3.1211,3.1176,3.1175,3.1174,3.1174,0,3.1099,3.1111,3.1111,3.1114,3.1114,3.1117,3.1122,3.1118,3.1145,3.1142,3.1139,3.1138,3.1137,3.1134,3.1136,3.1142,3.1162,3.1165,3.116,3.1153,3.1148,3.1151,3.1238,3.1167,3.1167,3.1168,3.1168,3.1168,3.1043,3.1034,3.1047,3.1045,3.1052,3.1057,3.1051,3.1065,3.1063,3.1065,3.108,3.1073,3.1082,3.1087,3.1091,3.1086,3.11,3.1092,3.109,3.1087,3.1084,3.1149,3.1087,3.1087,3.1087,3.1087,3.1087,0,3.0971,3.0981,3.098,3.0988,3.0987,3.1008,3.1015,3.1013,3.1008,3.1015,3.1015,3.1011,3.1009,3.1024,3.1024,3.1017,3.1026,3.1016,3.1017,3.1018,3.1072,3.1077,3.1009,3.1009,3.1009,3.1009,3.1009,3.1009,3.0934,3.092,3.0934,3.0924,3.0935,3.093,3.0933,3.0937,3.0943,3.0939,3.0938,3.0949,3.0959,3.096,3.0959,3.0964,3.0963,3.0949,3.0957,3.1006,3.1014,3.1021,3.1026,3.0949,3.0949,3.0904,3.0903,3.0903]}]]